Location: hvezdarna zebrak
(49.8744°N, 13.8989°E)
Time: 16:36:15
(UTC+01:00)

Envisat - Visible Passes

Search period start: 30 January 2023 00:00
Search period end: 09 February 2023 00:00
Orbit: 763 x 765 km, 98.2° (Epoch: 30 January)

Date Brightness Start Highest point End Pass type
(mag) Time Alt. Az. Time Alt. Az. Time Alt. Az.
30 Jan 4.7 04:13:10 10° NNE 04:15:26 27° NNE 04:15:26 27° NNE visible
30 Jan 4.5 05:53:06 10° NNW 05:55:37 19° NW 05:55:37 19° NW visible
31 Jan 5.3 03:36:24 10° NNE 03:38:06 19° NE 03:38:06 19° NE visible
31 Jan 4.1 05:15:26 10° N 05:18:17 28° NNW 05:18:17 28° NNW visible
01 Feb 5.9 03:00:14 10° NE 03:00:45 12° NE 03:00:45 12° NE visible
01 Feb 4.1 04:38:08 10° N 04:40:56 33° N 04:40:56 33° N visible
01 Feb 4.7 06:18:54 10° NNW 06:21:08 14° NW 06:21:08 14° NW visible
02 Feb 4.7 04:01:08 10° NNE 04:03:36 28° NNE 04:03:36 28° NNE visible
02 Feb 4.2 05:40:46 10° N 05:43:47 23° NW 05:43:47 23° NW visible
03 Feb 5.4 03:24:31 10° NE 03:26:16 19° NE 03:26:16 19° NE visible
03 Feb 3.9 05:03:15 10° N 05:06:27 34° NNW 05:06:27 34° NNW visible
04 Feb 6.0 02:48:44 10° NE 02:48:55 11° NE 02:48:55 11° NE visible
04 Feb 4.0 04:26:02 10° NNE 04:29:07 38° NNE 04:29:07 38° NNE visible
04 Feb 4.5 06:06:22 10° NNW 06:09:19 17° NW 06:09:19 17° NW visible
05 Feb 4.7 03:49:08 10° NNE 03:51:47 28° NE 03:51:47 28° NE visible
05 Feb 4.0 05:28:30 10° N 05:31:59 28° NW 05:31:59 28° NW visible
06 Feb 5.5 03:12:42 10° NE 03:14:28 17° NE 03:14:28 17° NE visible
06 Feb 3.6 04:51:05 10° N 04:54:39 42° NNW 04:54:39 42° NNW visible
06 Feb 4.8 06:32:44 10° NW 06:34:01 11° NW 06:34:51 11° WNW visible
07 Feb 4.0 04:13:58 10° NNE 04:17:19 42° NNE 04:17:19 42° NNE visible
07 Feb 4.3 05:53:56 10° NNW 05:57:31 20° WNW 05:57:31 20° WNW visible
08 Feb 4.8 03:37:10 10° NNE 03:40:00 27° NE 03:40:00 27° NE visible
08 Feb 3.7 05:16:15 10° N 05:20:11 34° NW 05:20:11 34° NW visible
